Weather History for Elmira, NY

Change the Weather History Date:

Friday, May 11, 2012

  Actual Average Record
Temperature  
Mean Temperature 50 °F -  
Max Temperature 68 °F 67 °F 92 °F (1948)
Min Temperature 34 °F 41 °F 25 °F (1966)
Degree Days  
Heating Degree Days 15    
Moisture  
Dew Point 33 °F    
Average Humidity 51    
Maximum Humidity 85    
Minimum Humidity 24    
Precipitation  
Precipitation 0.00 in - - ()
Sea Level Pressure  
Sea Level Pressure 30.02 in    
Wind  
Wind Speed 7 mph (WNW)    
Max Wind Speed 18 mph    
Max Gust Speed 30 mph    
Visibility 10 miles    
Events      
Averages and records for this station are not official NWS values.
T = Trace of Precipitation, MM = Missing Value Source: NWS Daily Summary

Daily Weather History Graph

Daily Weather History Graph

Search for Another Location

Airport:

Trip Planner

Search our weather history database for the weather conditions in past years. The results will help you decide how hot, cold, wet, or windy it might be!

Date:

Astronomy

May. 11, 2012 Rise Set
Actual Time 5:50 AM EDT 8:18 PM EDT
Civil Twilight 5:18 AM EDT 8:49 PM EDT
Nautical Twilight 4:39 AM EDT 9:29 PM EDT
Astronomical Twilight 3:55 AM EDT 10:13 PM EDT
Moon 12:55 AM EDT (5/11) 11:21 AM EDT (5/11)
Length of Visible Light 15h 31m
Length of Day
14h 27m
Waning Gibbous, 63% of the Moon is Illuminated
May 11
Waning Gibbous
May 12
Last Quarter
May 20
New
May 28
First Quarter
Jun 4
Full

Hourly Weather History & Observations

Time (EDT) Temp. Windchill Dew Point Humidity Pressure Visibility Wind Dir Wind Speed Gust Speed Precip Events Conditions
12:53 AM 39.0 °F 35.7 °F 32.0 °F 76% 29.91 in 10.0 mi West 4.6 mph - N/A   Partly Cloudy
1:53 AM 39.0 °F - 32.0 °F 76% 29.92 in 10.0 mi Calm Calm - N/A   Clear
2:53 AM 34.0 °F - 30.0 °F 85% 29.92 in 10.0 mi Calm Calm - N/A   Clear
3:53 AM 37.0 °F 34.5 °F 32.0 °F 82% 29.93 in 10.0 mi West 3.5 mph - N/A   Clear
4:53 AM 39.0 °F 34.0 °F 33.1 °F 79% 29.94 in 10.0 mi WSW 6.9 mph - N/A   Scattered Clouds
5:53 AM 39.0 °F 34.8 °F 33.1 °F 79% 29.97 in 10.0 mi SW 5.8 mph - N/A   Scattered Clouds
6:53 AM 41.0 °F 35.2 °F 34.0 °F 76% 29.99 in 10.0 mi SW 9.2 mph - N/A   Clear
7:53 AM 48.9 °F - 35.1 °F 59% 30.01 in 10.0 mi West 10.4 mph - N/A   Clear
8:53 AM 53.1 °F - 35.1 °F 50% 30.02 in 10.0 mi West 8.1 mph - N/A   Clear
9:53 AM 57.0 °F - 35.1 °F 44% 30.03 in 10.0 mi NW 10.4 mph 16.1 mph N/A   Clear
10:53 AM 60.1 °F - 33.1 °F 36% 30.03 in 10.0 mi WNW 16.1 mph 21.9 mph N/A   Partly Cloudy
11:53 AM 62.1 °F - 32.0 °F 32% 30.04 in 10.0 mi NW 13.8 mph 26.5 mph N/A   Partly Cloudy
12:53 PM 64.0 °F - 32.0 °F 30% 30.03 in 10.0 mi NW 11.5 mph 23.0 mph N/A   Scattered Clouds
1:53 PM 64.9 °F - 30.9 °F 28% 30.04 in 10.0 mi NW 18.4 mph 26.5 mph N/A   Partly Cloudy
2:42 PM 66.2 °F - 33.8 °F 30% 30.02 in 10.0 mi NNW 13.8 mph 29.9 mph N/A   Partly Cloudy
2:53 PM 66.0 °F - 30.9 °F 27% 30.03 in 10.0 mi NW 13.8 mph 25.3 mph N/A   Partly Cloudy
3:53 PM 66.9 °F - 28.9 °F 24% 30.03 in 10.0 mi NNW 18.4 mph 25.3 mph N/A   Clear
4:53 PM 66.9 °F - 30.9 °F 26% 30.03 in 10.0 mi NW 13.8 mph 20.7 mph N/A   Clear
5:53 PM 66.9 °F - 30.9 °F 26% 30.04 in 10.0 mi NW 13.8 mph 20.7 mph N/A   Clear
6:53 PM 66.0 °F - 30.9 °F 27% 30.05 in 10.0 mi NW 6.9 mph - N/A   Clear
7:53 PM 63.0 °F - 33.1 °F 33% 30.08 in 10.0 mi NW 10.4 mph - N/A   Clear
8:53 PM 57.9 °F - 33.1 °F 39% 30.10 in 10.0 mi WNW 4.6 mph - N/A   Clear
9:53 PM 52.0 °F - 36.0 °F 54% 30.12 in 10.0 mi West 3.5 mph - N/A   Clear
10:53 PM 46.0 °F - 37.0 °F 71% 30.14 in 10.0 mi Calm Calm - N/A   Clear
11:53 PM 45.0 °F - 37.9 °F 76% 30.14 in 10.0 mi Calm Calm - N/A   Clear